Temperature
18 20 20 20 20 19 19 18 18 18 18 18 17 16 17 17 17 18 18 18 18 18 18 18 18 18 18 18 18 18 17 17 17 17 17 17 17 17 17 17 17 16 16 16
18 19 20 20 19 19 19 18 18 18 17 17 16 16 16 17 17 17 17 17 18 18 18 18 18 18 18 18 18 18 18 17 17 17 17 17 17 17 17 17 16 16 16 16
17 19 19 19 18 18 18 17 18 18 17 16 16 15 15 16 16 17 17 17 18 18 17 17 17 18 18 18 18 18 18 18 17 17 17 17 17 17 17 17 16 16 16 16
15 18 18 18 18 18 17 17 17 17 16 15 15 15 15 16 16 16 17 17 17 17 17 17 17 17 18 17 18 18 17 17 17 17 17 17 17 17 17 17 16 16 16 16
14 16 17 18 17 17 17 16 16 16 15 15 15 15 15 15 16 16 16 16 16 17 17 17 17 17 17 17 17 17 17 17 17 17 17 17 17 17 17 17 17 16 16 16
14 16 17 17 17 17 17 16 15 15 14 14 15 15 14 14 15 15 16 16 16 16 17 17 17 17 17 17 17 17 17 17 17 17 17 17 17 17 17 17 17 16 16 16
15 16 16 16 15 17 17 16 15 14 14 14 14 14 14 14 14 15 15 15 16 16 16 16 16 16 16 16 16 17 17 17 17 17 17 17 17 17 17 16 16 16 16 16
13 15 15 14 15 16 15 14 14 14 14 14 13 13 13 14 14 14 15 15 15 16 16 16 16 16 16 16 16 16 16 16 16 16 16 16 16 16 16 16 16 16 15 15
13 13 13 12 13 14 14 14 14 14 14 14 13 13 13 13 14 14 14 14 14 15 15 15 15 15 15 15 15 16 16 16 16 16 16 16 16 16 16 15 15 15 15 15
12 12 12 12 13 13 14 14 14 14 14 14 13 13 13 13 13 13 13 13 13 14 14 14 14 14 15 15 15 15 15 15 15 15 15 15 15 15 15 15 15 15 15 15
12 12 12 12 12 13 13 13 13 13 13 13 13 12 12 12 12 12 12 13 13 13 13 13 14 14 14 14 14 14 14 14 14 15 15 14 14 14 14 14 15 14 14 14
12 12 11 11 12 13 13 13 13 13 12 12 13 12 12 12 12 12 12 12 12 12 12 12 13 13 13 13 14 14 14 14 14 14 14 14 14 13 13 13 14 14 14 14
12 12 12 11 12 12 12 12 12 12 12 12 12 12 12 11 11 11 11 11 11 11 11 12 12 12 12 13 13 13 13 13 13 13 13 13 13 13 13 13 13 13 13 13
12 12 11 11 11 12 12 12 12 11 11 11 11 11 11 11 11 11 11 11 11 11 11 11 11 11 11 12 12 12 13 13 13 13 13 13 13 13 13 12 12 12 12 12
11 12 11 11 11 11 11 11 11 10 10 10 10 10 11 11 10 10 10 10 11 11 11 11 11 11 11 11 11 12 12 12 12 12 12 12 12 12 12 11 11 11 11 11
11 11 11 10 10 10 10 11 10 10 10 10 10 10 10 10 10 10 10 10 10 10 10 10 10 10 10 11 11 11 11 11 11 11 11 11 11 11 11 10 10 10 10 10
10 10 10 10 10 10 10 10 10 10 10 10 9 10 10 10 10 10 10 10 10 10 10 10 10 10 10 10 10 10 10 10 10 10 10 10 10 9 9 9 9 9 9 9
11 11 11 11 10 10 10 10 10 9 9 9 9 9 10 10 9 9 9 9 9 9 9 9 10 10 10 10 10 10 10 9 9 9 9 9 9 9 9 9 8 8 8 8
11 11 10 10 10 10 10 10 10 9 9 9 9 9 9 9 9 9 9 9 9 9 9 9 9 9 9 9 9 9 9 9 9 8 8 8 8 8 8 8 8 7 7 7
10 10 10 10 10 10 10 10 9 9 9 9 9 9 9 9 9 9 9 9 9 8 8 9 9 9 9 9 9 9 9 8 8 8 8 7 7 7 7 7 7 7 7 7
10 10 10 10 10 10 10 10 10 9 9 9 9 9 9 8 8 9 9 8 8 8 8 8 8 8 8 8 8 8 8 8 8 7 7 7 7 7 7 7 6 6 6 6
10 10 10 10 10 10 10 10 10 9 9 9 9 9 9 8 8 8 8 8 8 8 8 8 8 8 8 8 8 8 8 7 7 7 7 7 7 6 6 6 6 6 6 5
10 10 10 10 10 9 9 9 9 9 9 9 9 9 8 8 8 8 8 8 8 8 8 8 8 8 8 8 7 7 7 7 7 7 6 6 6 6 6 6 6 5 5 5
9 9 9 9 9 9 9 9 9 9 9 9 9 8 8 8 8 8 7 7 7 7 7 7 7 7 7 7 7 7 6 6 6 6 6 6 6 5 5 5 5 5 5 4
9 9 9 9 9 9 9 9 9 9 8 8 8 8 8 8 8 7 7 7 7 7 7 6 6 6 6 6 6 6 6 6 6 6 6 5 5 5 5 4 4 4 4 4
9 9 9 9 9 9 9 9 8 8 8 8 8 7 7 7 7 7 7 7 6 6 6 6 6 6 6 6 6 6 5 5 5 5 5 5 5 4 4 4 4 4 3 3
9 9 9 9 9 9 9 8 8 8 8 8 7 7 7 7 7 7 6 6 6 6 6 6 6 5 5 5 5 5 5 5 5 5 4 4 4 4 4 4 3 3 3 3
Wind_Speed
3 3 4 3 5 7 5 8 9 9 7 5 3 3 1 2 3 4 4 3 2 2 2 2 2 3 4 4 4 5 6 7 7 7 7 7 8 8 8 8 9 9 8 9
2 2 5 5 3 5 4 5 6 7 4 2 2 3 3 4 4 4 2 2 1 1 1 1 2 2 3 4 4 5 6 7 6 7 8 8 7 7 7 8 7 8 9 9
3 2 4 2 0 3 4 3 7 7 6 4 4 4 3 3 4 3 1 2 1 1 0 1 2 2 3 4 4 5 5 6 6 7 8 8 8 8 8 8 7 8 8 9
4 5 4 4 1 5 7 4 2 4 5 6 6 5 5 4 3 3 3 3 2 1 1 1 1 1 1 3 4 5 5 5 6 6 7 7 7 8 8 7 8 7 8 8
4 5 3 1 1 3 5 2 1 5 7 7 7 6 6 6 5 4 4 3 2 2 1 1 1 0 2 2 3 4 4 4 5 6 7 8 8 8 7 7 7 7 6 8
4 5 6 5 1 1 5 1 1 5 7 7 5 4 1 4 6 6 6 5 5 4 4 3 2 0 2 2 3 3 3 3 3 4 6 7 8 7 6 6 7 7 6 6
4 3 3 2 2 2 5 6 5 5 6 5 3 4 5 5 6 6 6 6 6 5 4 4 3 2 1 1 2 2 1 2 3 3 4 5 5 4 5 6 6 6 6 5
4 4 5 2 1 5 4 3 6 6 5 7 8 8 7 6 6 6 6 7 7 6 6 5 4 3 1 1 2 1 0 1 2 3 3 3 3 4 4 6 6 5 5 4
3 3 0 1 1 0 3 6 5 5 7 10 9 7 6 6 6 6 6 6 6 6 6 7 6 4 3 4 3 2 1 1 1 1 1 2 3 4 4 4 4 4 4 4
3 1 2 4 3 4 6 7 7 8 8 9 9 8 7 6 6 6 6 6 6 6 7 7 7 6 5 4 3 2 1 1 1 2 2 2 2 2 3 3 4 4 4 4
3 3 4 5 5 8 10 11 11 10 9 9 10 8 6 6 5 5 5 5 6 7 7 7 7 7 6 5 4 3 3 2 2 2 3 3 3 3 2 1 2 4 4 4
4 4 4 4 4 8 10 10 10 11 10 8 8 8 7 6 6 6 6 6 7 8 8 8 8 8 8 7 5 4 4 3 2 3 3 4 4 5 9 7 8 7 5 4
3 5 6 6 6 8 10 10 10 10 9 8 7 8 8 7 6 7 7 8 8 8 8 8 9 10 9 8 7 6 5 4 4 4 4 4 4 5 5 7 11 11 10 9
7 9 8 6 7 9 11 12 12 11 10 9 8 8 8 8 8 8 8 7 7 8 9 9 10 10 10 8 8 8 7 7 6 5 4 5 5 5 5 6 6 6 8 10
6 6 9 10 10 10 10 11 12 11 9 9 8 8 8 9 8 7 6 6 7 9 9 9 10 10 9 8 9 8 8 6 6 6 6 6 6 6 6 7 7 6 6 7
10 11 13 12 11 10 10 11 11 10 9 9 8 8 8 8 8 8 8 8 9 9 9 8 9 8 8 8 8 8 8 11 9 7 7 7 7 7 7 7 7 7 7 6
10 10 11 11 10 10 9 9 9 9 8 8 7 7 8 8 9 9 8 8 8 8 8 8 8 8 8 8 8 7 7 9 12 10 8 8 8 8 7 8 8 8 7 7
7 8 9 11 11 11 10 9 9 9 8 7 7 7 8 8 8 7 6 6 8 9 9 8 8 8 9 9 7 6 7 8 8 8 8 8 8 8 8 8 9 9 7 8
9 10 9 10 10 10 10 9 8 8 8 8 8 8 8 7 6 6 6 8 8 8 7 7 9 9 9 9 9 7 8 9 9 8 8 9 9 8 8 8 8 8 7 7
9 10 10 10 10 10 9 9 9 8 8 8 9 9 9 7 7 7 8 8 5 3 4 6 7 7 7 8 10 7 8 9 9 8 8 8 8 7 7 8 8 7 7 7
10 10 11 10 9 9 9 9 9 9 8 8 9 9 8 7 7 6 7 6 6 6 6 8 7 6 6 7 9 8 8 8 8 7 7 7 7 7 7 7 7 6 6 6
9 9 10 10 10 9 8 8 9 9 9 8 9 9 8 8 7 7 6 4 4 6 6 6 6 8 9 9 7 8 8 8 7 6 6 6 6 6 6 6 6 5 5 5
8 9 9 9 10 10 9 8 9 9 9 8 8 8 7 6 5 5 5 4 4 8 7 7 8 11 11 8 7 8 8 8 7 6 6 6 6 6 6 6 6 5 5 5
9 9 9 9 10 11 10 8 8 8 8 8 7 6 6 6 5 5 4 5 8 9 7 8 11 12 11 7 7 7 7 7 7 6 6 6 6 6 6 5 5 5 5 6
9 9 10 10 10 8 8 9 9 9 9 7 7 7 5 5 5 4 5 6 8 9 7 9 11 11 8 7 7 7 6 6 6 6 6 6 6 5 5 5 5 5 4 4
9 8 7 7 7 7 7 7 7 6 7 7 6 5 5 5 6 6 5 7 8 8 7 6 6 7 6 6 7 6 6 6 6 6 6 5 6 5 5 5 5 4 4 4
9 8 8 8 7 6 7 7 7 6 6 6 6 4 5 5 5 6 6 6 6 6 5 5 5 5 6 6 6 6 6 5 5 5 5 4 4 4 4 4 4 4 4 4
Wind_Direction
182 177 148 140 152 155 149 165 167 195 191 220 216 209 176 98 93 93 89 92 128 147 153 163 176 181 174 180 175 175 179 190 201 195 193 190 188 191 192 192 196 193 194 200
92 101 113 90 94 131 126 134 136 136 193 223 110 104 88 83 88 82 79 82 97 112 109 169 199 192 171 178 179 173 187 197 193 189 191 192 190 189 188 191 193 189 194 196
164 178 99 96 149 142 128 130 149 169 194 142 118 103 87 76 86 91 75 62 75 65 173 236 230 216 205 198 184 184 197 198 191 191 195 195 192 187 190 190 187 191 197 196
129 114 159 229 312 120 112 82 99 128 133 137 126 100 66 52 63 50 32 32 26 0 323 267 238 215 188 187 189 192 204 205 196 192 195 192 190 195 195 191 194 200 200 199
118 132 147 227 154 138 126 82 61 132 124 120 120 90 52 36 51 50 33 21 4 345 334 343 352 181 156 181 186 188 200 210 209 201 200 196 198 200 196 191 197 202 199 199
118 131 189 211 238 152 111 132 181 141 140 138 124 112 87 37 46 41 29 20 14 11 23 23 359 32 159 179 186 203 211 215 213 207 204 204 204 199 189 191 199 197 201 203
124 141 229 249 302 119 162 205 163 146 144 132 114 131 120 75 51 36 26 16 13 27 31 16 11 58 115 148 225 243 223 198 200 202 204 203 195 189 185 189 190 194 201 204
132 151 221 309 86 163 188 131 127 120 115 111 111 108 101 82 58 40 30 22 20 28 25 16 23 51 56 341 316 333 122 182 203 200 202 199 181 182 179 180 185 193 195 203
162 185 278 24 98 110 138 124 113 115 117 119 113 108 94 76 61 44 31 24 22 27 29 23 20 29 18 348 351 358 56 193 206 177 171 162 173 180 172 173 179 188 192 202
102 99 84 65 63 76 97 102 103 112 115 111 110 105 92 78 63 48 34 27 23 30 32 24 18 24 17 6 10 37 71 86 139 142 124 113 128 154 166 178 186 189 195 203
113 131 96 64 79 94 95 97 98 95 97 107 108 102 95 82 62 48 39 34 39 40 35 25 21 21 20 20 27 45 55 64 103 115 123 105 85 70 118 109 179 186 191 182
180 179 148 134 117 107 105 103 106 105 95 89 99 100 93 83 67 53 43 41 45 42 37 29 26 25 19 20 32 48 56 57 71 94 104 109 106 83 66 75 72 77 84 110
135 112 113 114 101 101 107 105 102 100 101 96 87 93 92 84 71 61 51 45 44 42 38 33 31 29 22 23 35 48 54 57 65 78 93 101 104 108 97 71 65 63 64 76
117 114 109 107 106 104 105 103 98 93 90 91 91 89 89 84 72 61 51 44 45 48 43 37 36 28 17 26 41 49 52 56 63 64 71 85 91 92 95 96 84 63 51 58
84 103 118 113 105 102 104 105 102 97 92 86 85 85 85 82 73 61 49 47 52 51 43 38 36 24 14 30 45 50 54 55 61 68 68 74 82 88 89 88 87 80 67 53
102 104 110 112 112 110 106 106 106 104 100 94 88 83 83 83 75 63 52 50 55 48 37 37 33 18 22 38 49 53 58 64 67 70 72 72 72 77 82 83 81 76 68 59
118 119 121 123 122 118 113 111 111 111 105 100 96 90 87 82 72 61 51 48 55 49 38 37 30 26 36 44 53 58 59 63 66 69 68 70 72 74 76 79 77 74 65 57
117 127 131 134 130 123 117 111 109 107 106 105 100 93 87 84 79 65 52 52 55 46 33 28 34 41 43 46 55 59 63 65 64 67 67 68 71 72 75 77 77 76 68 60
110 115 116 118 120 118 117 115 113 110 107 105 100 93 87 83 79 72 62 59 53 41 14 15 35 48 48 50 59 62 68 70 68 66 69 68 69 69 72 74 74 73 70 67
105 111 112 112 113 115 117 115 113 107 104 105 101 93 84 75 71 71 67 58 37 10 360 27 41 47 48 54 64 66 70 73 73 70 69 70 71 70 71 72 72 71 68 67
109 110 110 112 109 107 112 115 114 109 103 101 102 99 91 76 66 64 65 52 11 16 36 41 46 47 50 57 63 68 70 73 73 73 74 74 73 70 69 69 70 69 68 66
113 113 111 112 110 104 102 104 108 107 103 98 97 98 92 80 71 64 55 48 20 36 49 48 51 59 63 64 67 69 70 71 71 72 72 72 72 72 68 67 67 65 65 64
111 111 110 113 113 108 98 96 100 105 103 102 101 98 93 84 75 79 61 27 44 58 59 57 60 64 65 66 68 70 71 71 70 70 72 72 72 73 71 68 65 63 62 60
106 105 106 108 107 104 102 98 96 97 97 93 90 93 97 91 70 58 71 60 62 68 66 60 62 63 65 66 70 72 72 71 71 70 70 71 72 73 71 70 66 60 57 55
108 107 109 110 109 111 112 107 98 91 89 85 78 73 73 82 91 80 72 69 70 72 69 61 61 63 66 68 69 70 71 71 74 74 71 71 71 72 69 67 65 61 55 49
106 107 108 108 112 115 114 110 106 102 100 93 77 68 72 76 82 80 75 70 70 71 70 64 62 63 66 67 68 70 72 72 72 70 69 69 69 68 66 63 62 59 55 51
97 98 100 97 93 99 105 109 111 109 107 107 97 78 78 81 82 81 79 76 72 70 67 63 63 67 70 72 71 69 68 70 70 71 71 70 69 69 67 66 63 60 57 53
Height
1428 1425 1426 1428 1431 1435 1439 1445 1453 1453 1453 1448 1447 1447 1447 1448 1449 1450 1451 1453 1454 1455 1457 1460 1461 1463 1465 1467 1469 1472 1474 1476 1479 1481 1485 1488 1490 1493 1496 1499 1502 1505 1508 1511
1429 1426 1425 1430 1431 1433 1436 1440 1444 1447 1450 1445 1445 1446 1448 1449 1449 1450 1451 1453 1454 1455 1457 1458 1460 1461 1463 1465 1467 1469 1472 1474 1477 1479 1482 1484 1487 1490 1493 1495 1498 1501 1503 1507
1438 1430 1430 1441 1436 1435 1437 1438 1440 1446 1445 1444 1446 1447 1449 1449 1449 1451 1452 1453 1454 1455 1456 1458 1459 1460 1461 1463 1465 1467 1469 1471 1474 1476 1478 1481 1484 1487 1489 1492 1495 1497 1500 1503
1440 1438 1450 1442 1432 1432 1436 1438 1438 1439 1442 1443 1445 1448 1450 1451 1451 1452 1452 1452 1453 1454 1455 1456 1457 1458 1460 1461 1463 1464 1466 1469 1471 1473 1476 1479 1481 1484 1487 1489 1492 1494 1497 1500
1444 1447 1444 1437 1433 1434 1437 1442 1439 1440 1442 1444 1446 1448 1451 1453 1453 1453 1453 1453 1453 1454 1454 1455 1455 1456 1458 1459 1460 1462 1464 1466 1468 1471 1473 1476 1478 1481 1483 1486 1488 1491 1494 1496
1441 1445 1449 1438 1431 1430 1435 1444 1440 1440 1442 1444 1445 1452 1455 1454 1454 1454 1454 1453 1453 1453 1453 1453 1454 1455 1456 1457 1458 1459 1461 1464 1466 1468 1470 1472 1474 1477 1480 1482 1485 1487 1490 1492
1439 1442 1439 1432 1430 1431 1444 1442 1438 1439 1441 1443 1446 1450 1453 1453 1454 1454 1454 1454 1453 1452 1452 1452 1453 1453 1454 1455 1456 1458 1460 1461 1463 1465 1467 1469 1471 1473 1476 1478 1481 1483 1485 1488
1440 1443 1443 1430 1430 1434 1435 1433 1435 1439 1442 1444 1447 1450 1452 1453 1454 1455 1454 1454 1453 1452 1452 1452 1452 1452 1452 1453 1454 1455 1457 1459 1460 1462 1464 1466 1468 1470 1472 1474 1477 1479 1481 1483
1435 1438 1433 1431 1431 1431 1432 1434 1437 1440 1443 1445 1448 1451 1452 1453 1454 1455 1455 1455 1454 1453 1452 1451 1451 1451 1451 1452 1453 1453 1454 1456 1458 1459 1461 1463 1465 1467 1469 1471 1473 1475 1478 1480
1433 1434 1432 1432 1431 1432 1433 1435 1438 1442 1444 1446 1449 1451 1453 1454 1455 1456 1456 1455 1455 1454 1452 1452 1451 1451 1451 1451 1452 1452 1453 1454 1456 1457 1458 1460 1462 1464 1466 1468 1470 1472 1475 1477
1432 1434 1433 1434 1433 1434 1436 1439 1441 1444 1447 1449 1450 1453 1455 1456 1457 1457 1457 1457 1456 1455 1453 1452 1452 1451 1451 1451 1451 1451 1452 1453 1454 1455 1456 1458 1460 1462 1464 1466 1468 1471 1472 1474
1431 1431 1432 1435 1436 1436 1438 1441 1444 1446 1449 1451 1453 1454 1456 1457 1459 1459 1459 1458 1457 1456 1455 1454 1453 1452 1452 1451 1451 1451 1451 1452 1453 1454 1455 1457 1459 1461 1463 1465 1466 1468 1470 1471
1427 1429 1432 1435 1437 1439 1440 1443 1446 1448 1450 1453 1455 1457 1458 1459 1461 1461 1461 1460 1459 1458 1457 1456 1455 1454 1453 1452 1452 1451 1451 1452 1452 1454 1455 1457 1458 1460 1462 1464 1465 1467 1468 1469
1428 1430 1434 1437 1439 1441 1443 1446 1448 1451 1454 1456 1458 1459 1461 1462 1463 1464 1464 1463 1463 1462 1461 1459 1458 1457 1456 1455 1454 1453 1453 1453 1454 1455 1456 1457 1459 1460 1462 1463 1465 1466 1468 1469
1431 1433 1435 1439 1442 1444 1446 1449 1451 1454 1457 1459 1461 1463 1464 1465 1466 1467 1467 1467 1466 1465 1464 1463 1462 1461 1460 1459 1458 1457 1456 1456 1456 1457 1458 1459 1460 1461 1463 1464 1466 1468 1469 1470
1434 1437 1439 1442 1444 1447 1450 1452 1454 1458 1460 1462 1464 1466 1467 1468 1469 1470 1471 1471 1470 1469 1468 1468 1466 1466 1464 1463 1461 1460 1460 1460 1459 1459 1460 1461 1462 1463 1464 1466 1468 1469 1471 1471
1435 1439 1442 1445 1448 1451 1454 1456 1458 1461 1463 1465 1468 1469 1471 1472 1472 1473 1474 1474 1474 1473 1473 1472 1470 1470 1468 1467 1466 1465 1464 1464 1463 1463 1463 1465 1466 1467 1468 1469 1470 1471 1473 1474
1438 1440 1443 1446 1450 1453 1456 1460 1462 1465 1467 1469 1471 1473 1474 1475 1475 1476 1477 1478 1478 1477 1476 1476 1475 1474 1473 1471 1471 1470 1469 1468 1468 1468 1469 1469 1470 1471 1472 1473 1474 1475 1476 1477
1441 1444 1447 1451 1454 1456 1459 1462 1466 1468 1470 1472 1474 1475 1477 1478 1479 1480 1481 1481 1480 1480 1480 1479 1479 1478 1477 1476 1475 1474 1474 1473 1473 1474 1474 1475 1475 1476 1476 1477 1478 1479 1480 1480
1445 1448 1451 1454 1457 1460 1463 1466 1469 1471 1474 1476 1477 1479 1480 1481 1482 1483 1484 1483 1483 1484 1484 1483 1482 1482 1481 1480 1480 1479 1478 1478 1479 1479 1479 1480 1480 1481 1481 1482 1482 1483 1483 1484
1449 1452 1455 1457 1461 1464 1466 1469 1472 1474 1477 1479 1481 1482 1483 1485 1486 1486 1486 1486 1487 1487 1487 1487 1486 1486 1485 1485 1484 1484 1483 1483 1483 1484 1484 1485 1485 1485 1486 1486 1486 1487 1487 1487
1452 1455 1458 1461 1464 1467 1470 1473 1475 1478 1480 1482 1484 1485 1486 1488 1489 1489 1490 1490 1491 1491 1491 1490 1490 1490 1489 1489 1488 1488 1488 1488 1488 1488 1488 1488 1489 1489 1489 1489 1490 1490 1490 1490
1455 1458 1461 1464 1467 1470 1473 1476 1479 1481 1483 1485 1487 1489 1490 1491 1492 1493 1493 1494 1494 1494 1494 1493 1493 1493 1493 1492 1492 1492 1492 1492 1492 1492 1492 1492 1492 1492 1492 1492 1492 1492 1492 1491
1458 1461 1464 1468 1471 1473 1476 1480 1483 1485 1487 1489 1491 1492 1493 1494 1495 1496 1496 1497 1497 1497 1497 1497 1496 1496 1495 1495 1495 1495 1495 1495 1495 1495 1495 1495 1495 1495 1495 1495 1495 1494 1494 1493
1462 1465 1468 1471 1474 1477 1480 1483 1486 1488 1490 1492 1494 1496 1497 1498 1498 1499 1499 1500 1500 1500 1499 1499 1499 1499 1498 1498 1498 1498 1498 1498 1498 1498 1498 1498 1498 1497 1497 1497 1496 1496 1495 1494
1466 1469 1472 1475 1477 1480 1483 1486 1488 1491 1493 1495 1496 1498 1499 1500 1501 1501 1502 1502 1502 1502 1502 1502 1501 1501 1501 1501 1501 1501 1501 1501 1501 1501 1501 1500 1500 1499 1499 1498 1498 1497 1496 1495
1470 1473 1475 1478 1481 1484 1487 1489 1491 1493 1495 1497 1498 1500 1501 1502 1503 1504 1504 1504 1504 1504 1504 1504 1504 1504 1504 1504 1503 1503 1503 1503 1503 1503 1503 1502 1502 1501 1500 1500 1499 1498 1497 1496